Wind_Speed
49 48 47 47 47 47 47 47 46 46 45 45 45 45 46 48 47 47 47 47 47 48 47 46 45 45 44 44 43 43 42 41 41 40 41 41 40 40
50 49 48 49 49 49 49 48 48 47 46 45 45 46 47 48 49 49 49 48 47 47 47 48 47 46 45 45 44 44 44 43 43 43 42 42 42 43
52 51 50 50 49 49 49 50 49 49 47 46 46 47 48 49 50 50 50 49 48 47 48 49 49 48 47 47 46 45 45 45 45 45 45 44 45 45
53 52 51 51 51 51 51 51 51 50 49 47 47 49 49 49 50 50 50 50 50 49 49 50 50 50 49 50 49 48 48 47 47 47 47 47 46 46
54 53 52 51 51 52 52 52 52 51 51 50 49 49 50 50 49 49 49 50 51 50 51 52 51 51 50 51 51 51 51 50 50 49 50 50 49 49
54 54 53 52 51 52 52 52 51 52 51 51 51 49 50 50 49 49 49 50 51 52 53 53 53 52 51 52 52 52 53 52 52 52 51 51 51 50
54 54 53 52 52 52 52 51 51 51 51 51 51 50 49 50 50 49 49 50 51 53 53 54 54 53 53 53 54 54 54 53 52 52 53 52 51 51
54 53 53 52 51 51 51 51 51 51 51 51 50 50 49 50 50 49 49 50 51 52 53 52 53 53 53 53 54 54 55 55 54 53 53 53 52 51
53 52 52 51 50 50 50 50 50 51 51 51 50 49 49 49 50 49 50 50 50 51 53 53 54 55 55 56 55 54 54 54 54 54 54 54 54 53
53 52 51 50 49 50 50 50 50 51 51 51 50 49 50 50 50 50 49 50 50 51 53 53 55 56 57 58 57 56 56 55 55 55 55 55 55 55
52 52 51 50 50 50 51 50 50 50 51 51 50 51 50 50 51 51 51 52 51 51 52 53 54 55 56 57 57 58 57 57 56 56 56 56 55 55
53 52 51 51 51 51 51 50 50 50 51 50 50 51 51 51 51 51 52 52 51 51 51 52 53 55 55 56 57 58 58 58 58 58 58 57 57 57
52 52 52 52 51 51 51 51 50 50 50 50 50 50 50 50 50 50 50 51 51 50 50 52 53 54 56 55 56 57 58 58 58 59 59 58 58 58
50 50 50 50 51 51 51 50 50 51 51 50 50 50 50 50 50 49 49 49 50 50 50 52 53 54 55 55 55 56 57 57 58 59 59 59 59 59
49 49 50 49 50 51 51 50 50 51 51 50 50 49 49 49 49 49 49 50 50 50 50 51 52 53 53 54 54 55 56 57 58 58 59 59 59 58
48 48 49 49 49 49 49 49 49 50 50 50 50 50 50 50 50 50 50 50 50 50 50 51 53 53 53 53 54 55 56 57 57 58 57 57 57 57
47 47 47 47 48 48 48 48 48 48 48 48 49 49 49 50 50 50 50 51 51 51 51 52 53 54 54 54 54 55 56 57 57 56 56 55 55 56
46 46 46 47 47 47 47 47 47 47 47 47 48 49 49 49 49 49 50 50 51 51 51 52 53 54 54 54 54 54 55 55 55 55 55 55 54 55
45 46 46 46 47 47 46 46 46 46 46 46 47 47 48 49 49 48 49 49 49 49 50 51 51 52 52 52 51 52 52 53 53 54 54 53 52 51
44 45 44 44 44 45 46 46 46 46 46 46 46 46 46 47 47 47 47 47 47 47 48 48 48 49 50 49 49 49 50 50 50 51 51 51 50 49
41 41 41 42 43 44 44 44 45 45 44 44 44 45 45 45 46 46 47 47 47 47 46 46 46 47 47 47 47 46 47 48 48 48 48 48 48 47
39 39 39 39 40 41 42 42 42 42 42 42 42 43 44 44 45 45 46 46 46 46 45 45 45 46 46 45 45 44 44 44 45 45 45 45 45 45
36 36 37 38 38 39 39 39 40 40 40 40 41 41 41 42 43 43 44 44 44 44 43 43 43 43 43 43 43 43 42 42 42 42 42 43 44 44
Wind_Direction
257 258 257 256 256 256 256 256 255 255 255 255 256 257 257 256 254 254 255 253 252 252 252 252 252 253 254 255 256 258 259 259 260 261 264 265 265 266
256 256 257 256 256 256 256 256 256 257 257 256 256 257 258 257 256 255 254 252 252 252 252 253 252 252 253 255 256 257 259 259 260 261 263 265 267 267
255 256 256 256 256 256 256 256 256 257 258 256 257 257 257 257 257 256 254 252 251 253 252 252 252 253 253 255 256 257 259 260 260 261 263 265 267 268
255 255 255 256 256 256 256 256 257 257 258 257 256 258 259 259 257 255 254 253 252 253 253 252 253 254 254 255 255 257 259 260 261 262 263 265 266 267
255 255 255 255 256 256 257 257 258 257 258 256 256 257 258 258 257 255 254 254 253 252 253 253 254 254 255 256 256 257 259 260 260 262 262 264 265 266
255 255 255 255 255 256 256 257 258 258 258 257 256 257 257 256 256 255 255 255 254 254 253 253 253 255 256 256 257 257 259 260 261 261 262 263 264 265
254 255 255 255 255 255 257 257 258 258 257 256 256 256 255 255 255 256 256 256 255 255 255 255 254 255 256 256 257 258 259 260 261 261 261 262 263 264
254 254 255 254 254 255 256 257 257 258 257 256 255 254 255 255 255 256 257 257 257 257 256 255 256 256 257 257 257 258 259 259 260 261 262 262 263 264
253 253 253 253 254 255 255 257 258 258 257 255 254 254 254 255 256 257 257 257 257 258 257 256 256 256 257 258 258 258 258 259 259 261 261 262 263 264
252 252 252 252 253 255 256 256 257 257 256 256 255 255 255 255 257 257 258 258 258 259 260 259 258 258 258 258 258 258 258 259 260 261 262 262 263 263
251 251 252 253 254 255 256 257 257 257 257 257 257 257 257 258 258 258 259 260 260 260 261 261 259 258 258 258 258 259 260 260 261 261 262 262 263 263
251 251 253 254 254 255 257 257 256 256 255 257 257 257 257 258 259 260 260 261 261 261 262 262 261 260 259 258 260 260 260 261 261 262 262 263 263 263
251 251 253 254 255 256 256 257 256 255 255 257 257 257 257 257 259 261 261 261 262 262 262 262 262 262 262 261 260 261 261 262 262 262 263 262 262 262
253 253 254 255 255 255 255 256 256 255 257 258 258 258 257 258 260 262 262 263 263 263 264 264 263 263 263 262 261 262 262 262 263 263 263 263 263 263
255 255 255 255 255 254 254 255 255 256 257 258 258 258 259 260 261 263 263 264 264 264 265 265 266 265 264 265 264 262 262 262 263 263 264 263 263 263
255 255 255 255 255 254 254 254 255 255 256 257 257 259 260 261 262 264 264 264 263 264 266 267 267 266 266 267 266 264 264 263 263 263 263 262 262 262
256 256 255 254 254 254 253 253 254 254 254 256 258 260 261 261 261 263 264 264 264 265 265 266 267 268 268 267 267 266 266 264 263 263 262 262 261 262
255 255 256 255 253 252 252 252 253 254 256 258 260 260 260 261 262 263 264 265 266 266 266 266 267 267 268 268 268 268 266 265 264 263 262 262 261 261
255 256 255 255 253 252 252 253 253 255 257 259 260 260 260 261 262 264 265 266 267 268 268 267 267 267 268 268 268 268 267 266 265 264 263 262 261 261
257 255 254 253 252 252 253 253 254 256 257 257 259 260 261 262 263 264 265 266 268 269 268 267 267 267 268 268 268 267 267 266 265 264 263 262 262 262
257 255 254 253 253 254 255 256 256 256 256 257 259 260 261 262 262 263 264 266 267 268 268 267 267 267 267 268 268 267 267 266 265 264 263 262 262 262
257 256 256 255 254 255 255 255 256 256 257 257 258 259 261 261 262 263 264 265 266 267 267 266 266 267 267 268 269 268 267 266 264 263 263 263 262 261
259 258 257 255 254 254 255 256 256 256 257 258 258 259 260 262 263 264 264 265 265 266 266 266 266 267 267 267 268 267 266 264 263 262 262 262 262 262
Height
5647 5649 5651 5653 5655 5657 5660 5662 5665 5668 5672 5674 5675 5676 5677 5679 5682 5685 5689 5693 5696 5700 5704 5707 5710 5713 5716 5719 5721 5723 5725 5728 5729 5731 5732 5733 5735 5737
5633 5636 5638 5640 5642 5644 5647 5649 5651 5654 5658 5662 5663 5664 5665 5666 5669 5671 5675 5679 5683 5687 5691 5694 5697 5700 5703 5706 5709 5710 5713 5715 5717 5719 5721 5722 5724 5725
5619 5621 5624 5626 5629 5631 5633 5636 5638 5641 5644 5648 5649 5650 5652 5653 5655 5657 5661 5665 5669 5673 5677 5681 5684 5687 5690 5693 5696 5698 5700 5702 5704 5706 5708 5709 5711 5713
5604 5607 5610 5612 5615 5617 5619 5622 5624 5626 5629 5633 5635 5637 5638 5639 5641 5644 5648 5651 5656 5660 5664 5667 5670 5673 5677 5680 5682 5685 5687 5689 5691 5693 5695 5697 5698 5699
5589 5592 5595 5598 5601 5603 5606 5608 5610 5612 5614 5617 5620 5622 5623 5625 5627 5631 5634 5638 5642 5646 5650 5653 5657 5659 5662 5665 5668 5671 5673 5675 5678 5679 5680 5682 5683 5684
5573 5577 5580 5583 5586 5589 5591 5594 5596 5597 5599 5602 5605 5607 5609 5611 5614 5617 5621 5624 5627 5631 5635 5638 5642 5645 5648 5652 5654 5656 5658 5660 5662 5664 5666 5667 5669 5670
5558 5562 5565 5568 5571 5574 5577 5579 5581 5583 5585 5587 5590 5593 5596 5598 5601 5604 5607 5610 5613 5616 5620 5623 5627 5631 5634 5636 5639 5641 5643 5645 5647 5649 5651 5652 5654 5655
5543 5547 5550 5554 5557 5560 5562 5565 5567 5569 5572 5574 5577 5580 5583 5585 5587 5590 5593 5596 5601 5604 5605 5608 5611 5615 5618 5621 5624 5625 5627 5630 5632 5634 5635 5637 5638 5640
5529 5533 5536 5540 5543 5546 5548 5550 5553 5555 5557 5560 5563 5566 5569 5572 5574 5577 5579 5581 5586 5588 5589 5594 5596 5600 5603 5605 5607 5610 5612 5614 5616 5618 5620 5621 5623 5624
5514 5518 5522 5526 5529 5532 5534 5537 5539 5541 5543 5546 5550 5553 5555 5557 5559 5562 5564 5567 5571 5573 5574 5578 5581 5584 5586 5588 5591 5593 5595 5598 5600 5601 5603 5605 5607 5608
5501 5504 5508 5512 5515 5518 5520 5523 5525 5527 5529 5532 5535 5538 5540 5542 5544 5547 5549 5552 5556 5559 5559 5562 5566 5567 5570 5573 5574 5576 5579 5581 5583 5585 5587 5589 5590 5592
5487 5491 5494 5497 5500 5502 5505 5508 5511 5514 5515 5518 5520 5523 5525 5528 5530 5532 5534 5536 5540 5544 5546 5546 5548 5549 5553 5558 5559 5560 5562 5564 5566 5568 5570 5572 5573 5575
5472 5476 5480 5483 5485 5488 5490 5493 5497 5499 5501 5503 5506 5509 5511 5513 5516 5517 5519 5521 5524 5528 5530 5530 5532 5533 5536 5541 5543 5544 5545 5547 5549 5550 5552 5554 5556 5557
5458 5462 5465 5468 5471 5473 5476 5479 5482 5484 5486 5489 5492 5495 5498 5500 5502 5503 5505 5507 5509 5512 5514 5514 5516 5518 5519 5522 5526 5528 5529 5530 5531 5533 5535 5536 5538 5540
5444 5448 5451 5453 5455 5458 5461 5464 5467 5469 5472 5474 5478 5481 5484 5487 5488 5489 5491 5492 5494 5496 5498 5499 5500 5501 5503 5505 5508 5510 5511 5512 5513 5515 5517 5519 5520 5522
5430 5433 5436 5438 5440 5443 5446 5449 5452 5455 5458 5461 5465 5468 5470 5472 5474 5475 5477 5478 5480 5482 5483 5484 5484 5485 5487 5489 5490 5492 5493 5495 5496 5497 5499 5500 5502 5504
5417 5419 5422 5424 5426 5429 5432 5435 5438 5441 5444 5447 5450 5453 5455 5457 5459 5461 5462 5463 5465 5467 5469 5469 5469 5469 5470 5472 5473 5475 5476 5478 5479 5480 5481 5484 5486 5488
5403 5405 5408 5410 5413 5416 5419 5422 5425 5427 5431 5433 5436 5438 5440 5443 5445 5446 5447 5448 5450 5452 5453 5454 5454 5454 5455 5456 5458 5458 5459 5461 5462 5463 5464 5466 5470 5471
5389 5392 5394 5397 5400 5403 5406 5409 5412 5414 5417 5420 5422 5424 5426 5428 5430 5432 5433 5434 5435 5436 5437 5438 5438 5438 5439 5441 5444 5442 5443 5444 5445 5446 5447 5450 5453 5455
5376 5379 5381 5384 5387 5390 5393 5396 5399 5401 5403 5406 5408 5410 5412 5414 5416 5418 5419 5420 5421 5421 5422 5422 5423 5423 5424 5426 5427 5428 5427 5427 5429 5430 5432 5434 5437 5439
5364 5366 5368 5371 5374 5377 5380 5383 5385 5388 5390 5393 5395 5397 5399 5401 5403 5404 5405 5406 5406 5407 5408 5409 5409 5409 5409 5409 5411 5413 5413 5413 5414 5416 5418 5419 5422 5424
5352 5353 5356 5358 5361 5364 5367 5370 5373 5375 5378 5380 5382 5384 5386 5388 5389 5390 5391 5392 5393 5393 5394 5394 5394 5394 5395 5395 5397 5398 5400 5400 5401 5401 5403 5405 5407 5410
5340 5342 5344 5347 5349 5352 5355 5358 5361 5363 5365 5368 5370 5371 5373 5374 5375 5376 5377 5378 5379 5379 5380 5380 5381 5381 5381 5382 5383 5384 5386 5387 5388 5389 5391 5392 5394 5397